Content
SEND FEEDBACK

Daily
Averages
Monthly
Summary
United States of America

CHAMPAIGN, ILLINOIS


Home > North America > United States > Illinois
Elevation: 736 feet     Latitude: 40 05N     Longitude: 088 13W

WEATHER
 
SELECT A DAY
Number of Records: 195,779;   Date Range: 1/1/95 - 8/12/14
 
SHARE

PRINT THIS DATA

[ ← Previous Day ]
WEATHER ALMANAC - NOVEMBER 1, 2013
[ Next Day → ]
[ °C ]   °F
Weather ElementAverageHighLow
Temperature47.7 °F54 °F (1:53 pm)41 °F (11:53 pm)
Dewpoint43.5 °F46.4 °F (9:27 am)39 °F (11:53 pm)
Humidity85.5 %97 % (3:53 am)66 % (1:53 pm)
Barometer29.66 in29.81 in (9:53 pm)29.55 in (12:12 am)
Wind Speed12.8 mph27.6 mph (12:25 am)
Wind Gust33.4 mph (12:25 am)
Weather ElementAverage
Visibility7.8 mi
Wind DirectionWSW (251.4 °)

Weather ElementTotal
Precipitation0.04 in
Heating Degree Days17.5 (Base 65)
Averaged from 36 records on November 1, 2013
WEATHER CONDITIONS BREAKOUT
WIND DIRECTION BREAKOUT
WEATHER BY HOUR - NOVEMBER 1, 2013
[ °C ]   °F
Local TimeTemperatureDewpointHumidityBarometerVisibilityWind DirectionWind SpeedGust SpeedPrecipitationEventsConditions
12:12 AM48.2 °F44.6 °F87 %29.55 inWest (260°)18.4 mph26.5 mphOvercast
12:25 AM48.2 °F44.6 °F87 %29.55 inWest (270°)27.6 mph33.4 mphOvercast
12:53 AM46.9 °F43.0 °F86 %29.56 inWest (260°)15.0 mphMostly Cloudy
1:02 AM46.4 °F42.8 °F87 %29.56 inWest (260°)12.7 mphMostly Cloudy
1:12 AM46.4 °F42.8 °F87 %29.57 inWest (260°)15.0 mph20.7 mph0.01 inMostly Cloudy
1:53 AM46.0 °F43.0 °F89 %29.57 inWSW (250°)12.7 mph0.01 inScattered Clouds
2:53 AM46.0 °F44.1 °F93 %29.57 inSW (230°)13.8 mphClear
3:36 AM46.4 °F44.6 °F93 %29.58 inSW (220°)16.1 mph0.01 inScattered Clouds
3:53 AM45.0 °F44.1 °F97 %29.58 inSW (220°)15.0 mph0.01 inPartly Cloudy
4:53 AM46.0 °F44.1 °F93 %29.60 inSW (230°)15.0 mphScattered Clouds
5:08 AM46.4 °F44.6 °F93 %29.60 inSW (230°)15.0 mphMostly Cloudy
5:53 AM46.0 °F44.1 °F93 %29.62 in6.0 miSW (230°)15.0 mphOvercast
6:14 AM46.4 °F44.6 °F93 %29.62 in6.0 miSW (230°)12.7 mphOvercast
6:41 AM44.6 °F42.8 °F93 %29.62 in6.0 miSW (230°)10.4 mphPartly Cloudy
6:53 AM45.0 °F43.0 °F93 %29.62 in6.0 miWSW (240°)10.4 mphClear
7:53 AM44.1 °F43.0 °F96 %29.63 in3.0 miWSW (240°)6.9 mphClear
8:53 AM46.9 °F45.0 °F93 %29.66 in3.0 miSW (230°)8.1 mphMostly Cloudy
9:01 AM46.4 °F44.6 °F93 %29.65 in3.0 miWSW (240°)10.4 mphMostly Cloudy
9:27 AM48.2 °F46.4 °F93 %29.66 in4.0 miWSW (250°)9.2 mphMostly Cloudy
9:53 AM48.9 °F46.0 °F90 %29.67 in5.0 miWest (260°)12.7 mphOvercast
10:00 AM48.2 °F46.4 °F93 %29.67 in6.0 miWest (260°)13.8 mphOvercast
10:53 AM51.1 °F46.0 °F83 %29.68 in6.0 miWest (260°)11.5 mphHaze
11:51 AM51.8 °F44.6 °F76 %29.68 in10.0 miWSW (250°)11.5 mphMostly Cloudy
11:53 AM51.1 °F44.1 °F77 %29.68 in10.0 miWest (260°)12.7 mphMostly Cloudy
12:53 PM53.1 °F44.1 °F71 %29.68 in10.0 miWSW (250°)13.8 mphOvercast
1:53 PM54.0 °F43.0 °F66 %29.68 in10.0 miWest (280°)20.7 mph25.3 mphOvercast
2:53 PM52.0 °F41.0 °F66 %29.69 in10.0 miWest (270°)16.1 mphOvercast
3:53 PM51.1 °F41.0 °F68 %29.71 in10.0 miWest (270°)16.1 mph23.0 mphOvercast
4:53 PM51.1 °F42.1 °F71 %29.72 in10.0 miWest (270°)10.4 mphOvercast
5:53 PM50.0 °F42.1 °F74 %29.73 in10.0 miWest (260°)10.4 mphOvercast
6:53 PM50.0 °F42.1 °F74 %29.76 in10.0 miWest (270°)11.5 mphOvercast
7:53 PM48.9 °F43.0 °F80 %29.78 in10.0 miWest (280°)9.2 mphOvercast
8:53 PM48.0 °F42.1 °F80 %29.79 in10.0 miWNW (290°)11.5 mph20.7 mph0.00 inRainLight Rain
9:53 PM46.9 °F43.0 °F86 %29.81 in10.0 miWest (270°)8.1 mph0.00 inOvercast
10:53 PM42.1 °F39.9 °F92 %29.81 in10.0 miSW (230°)5.8 mphMostly Cloudy
11:53 PM41.0 °F39.0 °F93 %29.81 in10.0 miWSW (240°)5.8 mphClear
Hourly data recorded from KCMI, located miles away from Champaign, Illinois







STORIES FROM OUR PARTNERS